Ashland, WI

12:35 PM CST on November 17, 2017 (GMT -0600)
Kennedy Memorial

Weather History for KASX - January, 2014

Change the Weather History Date:

Saturday, January 25, 2014

  Actual Average Record
Temperature  
Mean Temperature 4 °F -  
Max Temperature 12 °F 24 °F 52 °F (1973)
Min Temperature -5 °F 1 °F -22 °F (1966)
Degree Days  
Heating Degree Days 62    
Moisture  
Dew Point -6 °F    
Average Humidity 63    
Maximum Humidity 80    
Minimum Humidity 52    
Precipitation  
Precipitation 0.00 in - - ()
Sea Level Pressure  
Sea Level Pressure 29.68 in    
Wind  
Wind Speed 15 mph (NW)    
Max Wind Speed 25 mph    
Max Gust Speed 36 mph    
Visibility 7 miles    
Events Snow    
Averages and records for this station are not official NWS values.
T = Trace of Precipitation, MM = Missing Value Source: NWS Daily Summary

Daily Weather History Graph

Daily Weather History Graph

Search for Another Location

Airport or City:

Trip Planner

Search our weather history database for the weather conditions in past years. The results will help you decide how hot, cold, wet, or windy it might be!

Date:

Astronomy

Jan. 25, 2014 Rise Set
Actual Time 7:35 AM CST 4:57 PM CST
Civil Twilight 7:02 AM CST 5:30 PM CST
Nautical Twilight 6:25 AM CST 6:07 PM CST
Astronomical Twilight 5:49 AM CST 6:42 PM CST
Moon 2:05 AM CST (1/25) 11:58 AM CST (1/25)
Length of Visible Light 10h 27m
Length of Day
9h 22m
Waning Crescent, 34% of the Moon is Illuminated
Jan 25
Waning Crescent
Jan 30
New
Feb 6
First Quarter
Feb 14
Full
Feb 22
Last Quarter

Hourly Weather History & Observations

Time (CST) Temp. Windchill Dew Point Humidity Pressure Visibility Wind Dir Wind Speed Gust Speed Precip Events Conditions
12:53 AM 12.9 °F -3.4 °F 1.0 °F 59% 29.51 in 10.0 mi NNW 16.1 mph 28.8 mph N/A   Scattered Clouds
1:53 AM 12.9 °F -2.2 °F 1.9 °F 62% 29.54 in 10.0 mi NNW 13.8 mph - N/A   Overcast
2:06 AM 10.9 °F -8.8 °F 3.0 °F 70% 29.51 in 2.5 mi North 23.0 mph 28.8 mph 0.00 in Snow Light Snow
2:11 AM 10.9 °F -7.9 °F 3.0 °F 70% 29.52 in 1.2 mi NNW 20.7 mph 28.8 mph 0.00 in Snow Light Snow
2:35 AM 9.0 °F -7.3 °F 3.0 °F 77% 29.53 in 2.5 mi NNW 13.8 mph - 0.00 in Snow Light Snow
2:53 AM 8.1 °F -9.0 °F 1.9 °F 76% 29.59 in 1.5 mi NNW 15.0 mph 25.3 mph 0.00 in Snow Light Snow
3:00 AM 8.1 °F -9.0 °F 1.0 °F 73% 29.55 in 2.5 mi NNW 15.0 mph 25.3 mph 0.00 in Snow Light Snow
3:07 AM 8.1 °F -9.0 °F -0.0 °F 70% 29.55 in 5.0 mi NNW 15.0 mph 23.0 mph 0.00 in   Haze
3:16 AM 8.1 °F -10.2 °F 1.0 °F 73% 29.55 in 2.5 mi NNW 17.3 mph 24.2 mph 0.00 in Snow Light Snow
3:25 AM 7.0 °F -9.1 °F 1.9 °F 80% 29.56 in 1.2 mi NW 12.7 mph 27.6 mph 0.00 in Snow Light Snow
3:33 AM 7.0 °F -9.8 °F -0.0 °F 73% 29.57 in 3.0 mi NW 13.8 mph 24.2 mph 0.00 in   Haze
3:43 AM 6.1 °F -11.6 °F -2.9 °F 67% 29.58 in 10.0 mi NW 15.0 mph 25.3 mph 0.00 in   Overcast
3:53 AM 6.1 °F -14.8 °F -5.1 °F 60% 29.63 in 5.0 mi NW 21.9 mph 29.9 mph 0.00 in   Haze
4:03 AM 5.0 °F -15.2 °F -6.0 °F 61% 29.59 in 2.5 mi NNW 19.6 mph 35.7 mph N/A   Haze
4:10 AM 3.9 °F -19.0 °F -7.1 °F 60% 29.60 in 5.0 mi NNW 25.3 mph 31.1 mph N/A   Haze
4:53 AM 3.9 °F -11.3 °F -9.0 °F 55% 29.67 in 10.0 mi NW 10.4 mph - N/A   Partly Cloudy
5:53 AM 3.0 °F -14.8 °F -5.1 °F 69% 29.68 in 6.0 mi WNW 13.8 mph 23.0 mph N/A   Haze
6:53 AM 1.9 °F -16.2 °F -7.1 °F 66% 29.72 in 9.0 mi WNW 13.8 mph 24.2 mph N/A   Overcast
7:53 AM 1.0 °F -14.9 °F -7.1 °F 69% 29.75 in 9.0 mi NW 10.4 mph - N/A   Overcast
8:54 AM 1.0 °F -18.7 °F -7.1 °F 69% 29.76 in - NW 16.1 mph 26.5 mph N/A   Unknown
9:01 AM 1.0 °F -18.0 °F -7.1 °F 69% 29.71 in 2.5 mi NW 15.0 mph 26.5 mph N/A   Haze
9:08 AM 1.9 °F -16.9 °F -7.1 °F 66% 29.71 in 4.0 mi NW 15.0 mph 21.9 mph N/A   Haze
9:29 AM 1.0 °F -18.0 °F -8.0 °F 66% 29.72 in 7.0 mi NW 15.0 mph 24.2 mph N/A   Overcast
9:53 AM 1.9 °F -17.5 °F -7.1 °F 66% 29.78 in 2.5 mi NW 16.1 mph 21.9 mph 0.00 in Snow Light Snow
10:02 AM 1.0 °F -19.3 °F -8.0 °F 66% 29.73 in 4.0 mi NW 17.3 mph 26.5 mph 0.00 in   Haze
10:48 AM 1.4 °F -19.9 °F -9.4 °F 61% 29.75 in 9.0 mi WNW 19.6 mph 25.3 mph 0.00 in   Overcast
10:53 AM 1.9 °F -17.5 °F -9.0 °F 60% 29.81 in 10.0 mi NW 16.1 mph 27.6 mph 0.00 in   Overcast
11:53 AM 1.9 °F -17.5 °F -9.9 °F 58% 29.81 in 9.0 mi NW 16.1 mph 25.3 mph N/A   Overcast
12:53 PM 3.0 °F -15.5 °F -9.0 °F 57% 29.81 in 10.0 mi NW 15.0 mph 19.6 mph N/A   Overcast
1:53 PM 3.9 °F -15.0 °F -9.0 °F 55% 29.80 in 10.0 mi NW 16.1 mph 24.2 mph N/A   Overcast
2:53 PM 5.0 °F -10.0 °F -8.0 °F 55% 29.80 in 10.0 mi WNW 10.4 mph - N/A   Overcast
3:53 PM 3.9 °F -13.0 °F -8.0 °F 58% 29.79 in 10.0 mi West 12.7 mph - N/A   Scattered Clouds
4:53 PM 3.0 °F -12.5 °F -9.9 °F 55% 29.79 in 10.0 mi West 10.4 mph - N/A   Clear
5:53 PM -0.0 °F -14.2 °F -13.0 °F 54% 29.79 in 10.0 mi West 8.1 mph - N/A   Clear
6:53 PM -2.9 °F -16.5 °F -15.0 °F 56% 29.78 in 10.0 mi West 6.9 mph - N/A   Clear
7:53 PM -5.1 °F -19.1 °F -16.1 °F 59% 29.77 in 10.0 mi SSW 6.9 mph - N/A   Clear
8:53 PM -0.0 °F -14.2 °F -14.1 °F 52% 29.76 in 10.0 mi WSW 8.1 mph - N/A   Clear
9:53 PM -0.0 °F -11.6 °F -14.1 °F 52% 29.72 in 10.0 mi WSW 5.8 mph - N/A   Partly Cloudy
10:53 PM -0.0 °F -7.9 °F -13.0 °F 54% 29.69 in 10.0 mi SSW 3.5 mph - N/A   Mostly Cloudy
11:53 PM -0.0 °F - -13.0 °F 54% 29.67 in 10.0 mi Calm Calm - N/A   Overcast